DMSP 5D-2 F13 DEB, 40413

Orbit data source: Space-Track

DMSP 5D-2 F13 DEB, 40413 is space debris in SSO originally from a launch on Fri, 24 Mar 1995 UTC launched from the Air Force Western Test Range (AFWTR). Debris objects in space refer to the collection of defunct objects orbiting the Earth. Examples of debris include non-operational satellites, rocket bodies, and fragments generated from explosions, collisions, or faulty payload assembly.

Loading next visibility...
Identifier
40413, 1995-015AA
Orbit
SSO
Last TLE update
1 day ago
Origin
Manufacturer
Unknown
Mission
Spacecraft
Bus & Motor
Unknown
Mass
Unknown
Launch date (UTC)
1995-03-24 (30 years ago)
Launch vehicle
Unknown
Launch site
Air Force Western Test Range (AFWTR)
Object type
Payload
Rocket body
Debris
Shape & HBR
Unknown
Radar Cross Section
Small (<0.1 m²)

Expand to show TLE details & history

TLE from 1 day ago
0 DMSP 5D-2 F13 DEB
1 40413U 95015AA  25128.04509008  .00002786  00000-0  10793-2 0  9991
2 40413  98.6477 153.9524 0014056  45.0795 315.1526 14.30763019529373
Epoch: 2025-05-08T01:04Z
Definitive object data (Epoch: 2025-05-08T01:04:55.782Z)
Latitude
-0.00001°
Longitude
-88.40125°
Altitude
784.976 km
Speed
7.465 km/s
True Right ascension
10h 15m 48s
True Declination
0° 00' 00"
Sunlit
Object was in daylight at TLE epoch
Visualization TLE readout
Latitude
52.3932°
Longitude
-98.53476°
Altitude
787.772 km
Speed
7.47 km/s
Apparent Right ascension
05h 28m 18s
Apparent Declination
17° 16' 06"
Sunlit
Object is in daylight
Visualization observer readout
Local Sidereal Time
14:00:24
Azimuth
308.814° NW
Elevation
-15.111°
Doppler factor
1
Orbital elements
Apogee altitude
796.393 km
Perigee altitude
776.252 km
Semi-major axis
7,164.46 km
Eccentricity
0.0014056
Inclination
98.6477°
RAAN
153.9524°
Arg. of periapsis
45.0795°
True anomaly
315.03887°
Mean anomaly
315.1526°
Eccentric anomaly
315.09575°
Mean motion
3.57905 °/min
BSTAR
0.0010793
Orbital period
100.59 mins
Loading maneuver chart data...
Loading SW <> Apogee altitude chart data...

DMSP 5D-2 F13 DEB Visibility forecast

Observer location: undefined°, undefined°

Span
Click to sort rows by Start time (UTC) header in descending order
Start Az.
Max El. time (UTC)
Max El. Az.
Max El.
End time (UTC)
End Az.
9 mins2025-05-09 14:34:40.281Z14.232° NNE2025-05-09 14:39:40.281Z179.47° S44.437°2025-05-09 14:43:40.281Z193.498° SSW
8 mins2025-05-10 01:52:40.281Z178.021° S2025-05-10 01:56:40.281Z279.276° WNW42.365°2025-05-10 02:00:40.281Z339.381° N
|